Terminal Aerodrome Forecast
Issued by NWS Miami, FL

Home | Current Version | Previous Version | Text Only | Print | Product List | Glossary On
Versions: 1 2 3 4 5 6 7 8 9 10 11 12 13 14 15 16 17 18 19 20 21 22 23 24 25 26 27 28 29 30 31 32 33 34 35 36 37 38 39 40 41 42 43 44 45 46 47 48 49 50
000
FTUS42 KMFL 252342
TAFPBI
TAF
KPBI 252342Z 2600/2624 17010KT P6SM SCT025 BKN250
     FM260400 17010KT P6SM VCSH SCT005 BKN015
     FM260800 17010KT P6SM VCTS SCT005 BKN015 BKN025CB PROB30
      2609/2614 3SM +TSRA BKN010 BKN025CB
     FM261400 32015KT P6SM VCSH OVC050=

USA.gov is the U.S. government's official web portal to all federal, state and local government web resources and services.